This demonstration page uses our WeatherBlox Daily Observations layout. Learn more.

38.80484, -77.04692

Hourly Observations for December 7, 2018

Temp ( °F °C ) Dew Point ( °F °C ) Humidity (%) Winds ( mph kmh ) Pressure ( in mb ) Visibility ( mi km ) Precip ( " mm )
12:52 am 00:52 Mostly Clear 39 3.9 22 -5.6 50 50 SW 7 11 30.24 1024 10 16.09344 0 0
1:52 am 01:52 Cloudy 40 4.4 23 -5 51 51 WSW 8 13 30.27 1025 10 16.09344 0 0
2:52 am 02:52 Mostly Clear 38 3.3 23 -5 55 55 WSW 9 15 30.27 1025 10 16.09344 0 0
3:52 am 03:52 Mostly Clear 37 2.8 24 -4.4 59 59 SSW 5 7 30.27 1025 10 16.09344 0 0
4:52 am 04:52 Mostly Clear 36 2.2 23 -5 59 59 W 5 7 30.3 1026 10 16.09344 0 0
5:52 am 05:52 Mostly Clear 38 3.3 25 -3.9 60 60 NW 6 9 30.33 1027 10 16.09344 0 0
6:52 am 06:52 Mostly Clear 37 2.8 25 -3.9 62 62 N 10 17 30.36 1028 10 16.09344 0 0
7:52 am 07:52 Mostly Sunny 38 3.3 23 -5 55 55 NNW 17 28 30.39 1029 10 16.09344 0 0
8:52 am 08:52 Partly Cloudy 38 3.3 19 -7.2 46 46 NW 18 30 30.42 1030 10 16.09344 0 0
9:52 am 09:52 Mostly Cloudy 40 4.4 18 -7.8 41 41 NNW 15 24 30.45 1031 10 16.09344 0 0
10:52 am 10:52 Mostly Sunny 41 5 18 -7.8 39 39 NW 12 19 30.45 1031 10 16.09344 0 0
11:52 am 11:52 Partly Cloudy 42 5.6 18 -7.8 38 38 NNW 14 22 30.42 1030 10 16.09344 0 0
12:52 pm 12:52 Partly Cloudy 43 6.1 17 -8.3 35 35 N 8 13 30.42 1030 10 16.09344 0 0
1:52 pm 13:52 Partly Cloudy 43 6.1 16 -8.9 34 34 NW 10 17 30.42 1030 10 16.09344 0 0
2:52 pm 14:52 Mostly Sunny 43 6.1 17 -8.3 35 35 N 13 20 30.42 1030 10 16.09344 0 0
3:52 pm 15:52 Partly Cloudy 41 5 16 -8.9 36 36 NNW 12 19 30.42 1030 10 16.09344 0 0
4:52 pm 16:52 Partly Cloudy 39 3.9 16 -8.9 39 39 NNW 6 9 30.45 1031 10 16.09344 0 0
5:52 pm 17:52 Partly Cloudy 37 2.8 17 -8.3 44 44 N 9 15 30.45 1031 10 16.09344 0 0
6:52 pm 18:52 Partly Cloudy 37 2.8 18 -7.8 46 46 N 10 17 30.45 1031 10 16.09344 0 0
7:52 pm 19:52 Partly Cloudy 37 2.8 17 -8.3 44 44 NNE 8 13 30.45 1031 10 16.09344 0 0
8:52 pm 20:52 Partly Cloudy 35 1.7 19 -7.2 52 52 E 5 7 30.45 1031 10 16.09344 0 0
9:52 pm 21:52 Partly Cloudy 34 1.1 17 -8.3 50 50 NNE 8 13 30.48 1032 10 16.09344 0 0
10:52 pm 22:52 Partly Cloudy 34 1.1 17 -8.3 50 50 NE 7 11 30.48 1032 10 16.09344 0 0
11:52 pm 23:52 Partly Cloudy 33 0.6 19 -7.2 56 56 ENE 6 9 30.48 1032 10 16.09344 0 0

Powered by AerisWeather